This demonstration page uses our WeatherBlox Daily Observations layout. Learn more.

39.92423, -83.80882

Hourly Observations for September 23, 2019

Temp ( °F °C ) Dew Point ( °F °C ) Humidity (%) Winds ( mph kmh ) Pressure ( in mb ) Visibility ( mi km ) Precip ( " mm )
12:56 am 00:56 Partly Cloudy 72 22.2 58 14.4 61 61 SSW 8 13 29.94 1014 10 16.09344 0 0
1:56 am 01:56 Cloudy 74 23.3 58 14.4 57 57 SW 13 20 29.91 1013 10 16.09344 0 0
2:56 am 02:56 Cloudy with Light Rain 71 21.7 62 16.7 73 73 W 14 22 29.94 1014 10 16.09344 0.001 0.001
3:56 am 03:56 Mostly Cloudy with Light Rain 68 20 65 18.3 90 90 SW 9 15 29.91 1013 10 16.09344 0.02 0.508
4:56 am 04:56 Cloudy 67 19.4 66 18.9 97 97 SW 7 11 29.91 1013 10 16.09344 0.001 0.001
5:41 am 05:41 Cloudy 68 20 66 19 94 94 SW 10 17 29.91 1013 10 16.09344 0 0
5:56 am 05:56 Cloudy 68 20 66 18.9 93 93 SW 10 17 29.91 1013 10 16.09344 0 0
6:56 am 06:56 Cloudy with Light Rain 67 19.4 67 19.4 100 100 SW 8 13 29.91 1013 6 9.656064 0.12 3.048
7:03 am 07:03 Cloudy with Light Rain 66 19 66 19 100 100 SSW 8 13 29.91 1013 10 16.09344 0.001 0.001
7:40 am 07:40 Cloudy 66 19 66 19 100 100 SW 10 17 29.91 1013 10 16.09344 0.01 0.254
7:56 am 07:56 Cloudy 68 20 68 20 100 100 SW 12 19 29.91 1013 10 16.09344 0.01 0.254
8:56 am 08:56 Cloudy with Light Rain 69 20.6 69 20.6 100 100 WSW 12 19 29.91 1013 8 12.874752 0.001 0.001
9:46 am 09:46 Cloudy with Light Rain 70 21 70 21 100 100 WSW 10 17 29.94 1014 10 16.09344 0.001 0.001
9:56 am 09:56 Cloudy with Light Rain 70 21.1 70 21.1 100 100 WSW 12 19 29.94 1014 5 8.04672 0.001 0.001
10:56 am 10:56 Cloudy 73 22.8 72 22.2 96 96 WSW 14 22 29.94 1014 10 16.09344 0.001 0.001
11:09 am 11:09 Cloudy 73 23 72 22 94 94 W 13 20 29.94 1014 10 16.09344 0 0
11:49 am 11:49 Cloudy 75 24 72 22 89 89 WNW 13 20 29.94 1014 10 16.09344 0 0
11:56 am 11:56 Cloudy 73 22.8 68 20 84 84 WNW 12 19 29.94 1014 10 16.09344 0 0
12:22 pm 12:22 Mostly Cloudy 75 24 68 20 78 78 WNW 15 24 29.94 1014 10 16.09344 0 0
12:56 pm 12:56 Mostly Cloudy 77 25 68 20 74 74 W 12 19 29.94 1014 10 16.09344 0 0
1:09 pm 13:09 Mostly Cloudy 77 25 66 19 69 69 W 15 24 29.91 1013 10 16.09344 0 0
1:19 pm 13:19 Mostly Cloudy 75 24 66 19 74 74 WNW 15 24 29.94 1014 10 16.09344 0 0
1:56 pm 13:56 Partly Cloudy 79 26.1 64 17.8 60 60 WNW 17 28 29.91 1013 10 16.09344 0 0
2:56 pm 14:56 Mostly Cloudy 80 26.7 61 16.1 52 52 WNW 17 28 29.91 1013 10 16.09344 0 0
3:56 pm 15:56 Mostly Sunny 80 26.7 57 13.9 45 45 WNW 17 28 29.91 1013 10 16.09344 0 0
4:56 pm 16:56 Partly Cloudy 80 26.7 55 12.8 42 42 WNW 15 24 29.91 1013 10 16.09344 0 0
5:56 pm 17:56 Mostly Sunny 76 24.4 56 13.3 50 50 NW 15 24 29.94 1014 10 16.09344 0 0
6:56 pm 18:56 Sunny 74 23.3 56 13.3 54 54 NW 17 28 29.94 1014 10 16.09344 0 0
7:56 pm 19:56 Clear 69 20.6 55 12.8 61 61 NW 10 17 29.97 1015 10 16.09344 0 0
8:56 pm 20:56 Clear 66 18.9 51 10.6 59 59 NW 9 15 30 1016 10 16.09344 0 0
9:56 pm 21:56 Clear 63 17.2 50 10 63 63 NW 10 17 30 1016 10 16.09344 0 0
10:56 pm 22:56 Clear 61 16.1 50 10 67 67 NW 9 15 30.03 1017 10 16.09344 0 0
11:56 pm 23:56 Clear 58 14.4 50 10 75 75 NW 8 13 30 1016 10 16.09344 0 0

Powered by AerisWeather